Wind_Speed
14 15 15 14 15 17 17 19 21 21 19 17 14 11 9 10 10 12 19 25 28 30 29 28 27 26 28 31 33 33 34 35 36 36 38 39 37 33 34 36 36 36 38 40 39 36 34 32 30 31 34 36 37 39 42 46 49 50 49 49 49 50 52 53 53 53 54 55 56 57 56 56 55 54 55 56 56 58 59 61 62 63 64 65 65 65
14 14 13 12 14 16 15 17 20 19 17 15 15 16 14 9 7 9 11 15 21 26 29 30 30 29 29 30 31 31 30 33 37 39 38 39 39 35 33 37 38 37 38 41 41 40 37 35 33 33 34 36 38 39 43 47 49 51 51 51 51 51 52 53 55 55 54 53 54 55 56 57 57 56 56 56 57 58 59 61 62 64 65 66 66 67
13 12 12 11 13 16 14 15 18 19 18 16 15 17 18 13 7 8 8 7 11 16 21 27 30 31 31 30 29 29 31 33 36 40 40 37 38 36 33 36 39 40 40 39 39 42 41 39 36 35 35 37 38 39 41 44 47 48 49 50 52 52 52 52 54 56 56 55 54 54 54 55 56 56 56 56 56 57 58 59 61 63 64 65 67 67
12 11 11 10 13 16 15 14 17 19 20 21 19 18 19 17 12 8 7 5 4 6 11 17 21 26 29 30 29 28 30 32 34 38 39 36 34 31 30 34 37 40 43 41 39 40 41 40 38 36 37 38 38 40 40 41 42 44 46 47 49 52 53 53 54 55 55 54 53 53 53 53 54 55 55 55 56 57 57 58 60 61 62 64 65 66
10 10 10 10 12 16 16 15 16 18 21 23 22 20 19 17 16 13 6 2 3 4 5 9 13 16 20 23 26 26 27 30 33 34 33 33 32 30 32 35 35 38 43 43 40 39 38 39 39 39 40 41 40 41 40 40 41 42 43 44 46 49 50 51 52 53 53 51 50 49 50 50 52 54 55 55 56 57 57 58 59 60 61 62 64 65
9 10 11 11 12 15 17 17 17 17 20 23 24 23 19 17 17 16 12 7 4 6 6 1 5 8 12 16 19 21 24 28 30 30 30 31 31 33 37 37 35 36 40 42 40 38 35 34 39 41 42 43 43 42 42 41 41 41 42 44 45 47 48 48 49 51 51 51 49 48 47 46 47 51 54 55 55 56 57 58 58 59 61 62 63 64
9 11 13 12 13 15 18 19 18 17 19 21 23 24 22 18 16 16 15 12 8 7 9 8 3 4 8 11 14 16 20 26 26 26 29 31 31 35 37 36 36 36 39 42 42 39 35 33 37 42 43 43 42 43 43 41 41 41 43 44 44 46 47 48 48 49 49 50 49 49 48 48 47 49 51 53 55 56 57 58 59 60 61 62 63 64
10 12 13 13 14 15 16 18 18 18 18 19 20 22 22 18 15 14 13 14 13 11 11 11 7 4 4 5 7 9 12 19 21 22 25 29 30 32 33 33 34 35 37 40 40 40 40 37 38 41 40 39 40 41 42 42 42 42 43 44 45 46 48 49 50 50 50 51 52 52 51 51 51 51 51 52 53 54 54 56 57 59 60 61 62 63
11 13 13 14 15 15 16 18 18 17 17 17 18 20 20 17 14 12 11 13 15 14 13 12 11 10 9 5 2 2 4 10 15 19 22 25 28 29 28 28 30 32 35 39 39 38 39 38 38 38 37 35 36 37 39 41 42 41 42 43 44 46 48 51 52 53 53 54 54 54 54 54 54 55 55 54 54 55 56 57 58 59 60 60 61 62
11 12 13 14 15 16 17 18 18 16 15 14 15 18 18 15 13 11 10 11 11 12 14 13 13 13 12 10 6 3 0 4 9 16 20 23 26 26 26 26 27 30 34 37 38 37 38 38 37 36 34 33 34 34 35 37 38 39 41 42 44 46 48 51 52 54 55 55 55 55 55 55 56 57 57 58 58 59 60 61 61 61 62 62 63 63
11 13 14 15 15 16 17 17 17 16 15 14 14 16 16 13 13 12 10 10 10 10 12 13 14 13 12 12 11 8 5 2 7 12 17 20 24 27 27 27 27 29 33 34 35 35 37 40 39 36 35 36 37 36 36 36 36 37 39 41 43 45 47 49 51 53 54 55 56 56 56 57 58 59 60 60 61 62 63 63 63 64 64 65 65 65
12 13 14 14 15 15 16 16 16 16 15 14 14 15 14 13 13 13 11 10 10 9 10 9 10 11 11 12 13 12 10 3 5 10 14 16 20 25 27 28 28 30 32 34 34 35 36 39 40 39 39 40 41 40 40 39 38 38 38 39 41 44 47 49 50 52 53 54 56 57 58 58 59 60 60 60 61 61 62 63 64 64 65 66 66 67
12 12 13 13 14 15 16 16 16 15 15 15 15 15 15 15 15 15 13 12 10 9 9 8 8 10 10 11 12 12 12 8 4 5 10 13 16 21 24 27 28 30 32 34 34 35 36 38 39 40 41 42 42 43 43 42 41 41 40 40 41 44 46 48 49 51 52 54 55 56 57 57 58 58 59 60 60 61 62 62 63 64 65 66 67 67
10 10 11 12 14 15 17 18 17 17 17 17 18 18 18 19 18 17 16 15 14 12 11 11 10 9 8 8 9 9 11 10 8 4 3 8 13 17 20 24 28 30 32 32 33 35 36 37 38 40 41 41 42 43 42 41 40 40 41 42 42 44 47 49 51 52 52 53 54 55 55 56 57 57 57 57 58 59 59 60 61 62 63 64 65 66
10 11 13 14 15 17 18 18 18 18 19 19 19 20 20 21 20 19 19 19 19 18 16 14 13 11 9 9 9 8 8 8 8 7 5 2 6 11 16 20 25 29 31 32 32 34 36 37 39 39 40 39 39 40 38 38 39 41 42 42 40 41 43 45 46 46 46 47 48 49 49 49 50 50 50 50 50 51 52 52 53 54 56 57 59 60
13 14 15 15 16 17 17 18 18 19 19 20 20 21 21 21 21 21 22 22 22 22 21 19 17 15 14 12 11 10 8 7 7 7 6 5 2 4 10 15 19 24 29 32 32 32 34 36 37 37 38 38 37 36 35 37 40 42 40 37 35 34 35 35 36 37 38 39 40 40 40 40 41 41 41 40 41 42 43 45 46 47 49 50 52 52
15 15 15 15 15 16 16 16 17 18 19 19 20 20 20 21 22 22 23 23 24 23 23 22 20 19 18 16 14 13 11 9 8 5 4 3 2 1 3 8 12 16 20 25 27 29 32 34 35 36 35 34 33 32 32 34 36 36 34 30 29 28 28 28 29 30 31 31 31 32 31 31 32 32 33 33 34 35 37 38 40 42 44 46 46 47
15 15 15 15 15 15 15 15 15 16 17 17 18 18 19 20 21 22 22 23 23 23 23 23 22 21 20 19 18 17 15 13 11 9 6 2 1 2 3 4 7 11 14 17 20 23 25 27 28 28 27 26 26 27 28 30 31 31 29 26 23 21 22 22 23 23 24 24 25 25 26 26 27 28 29 31 31 32 34 35 37 38 40 42 43 43
14 14 14 14 14 14 14 14 15 16 16 16 16 16 17 18 19 19 20 21 21 22 22 22 23 23 22 21 20 20 18 17 15 14 11 8 5 4 6 6 7 10 12 15 18 19 21 21 20 20 21 21 21 22 24 27 28 28 27 25 22 21 20 19 20 21 21 22 23 24 25 26 27 28 29 30 31 32 33 34 35 36 37 38 39 40
12 12 12 13 13 13 14 14 15 15 15 16 16 17 17 17 17 18 19 19 20 21 21 22 22 22 22 22 21 21 20 19 18 17 15 13 10 7 5 6 9 10 12 15 17 17 19 21 21 21 21 21 21 22 24 26 27 28 27 26 24 23 22 22 22 23 23 24 25 25 26 26 27 29 30 31 33 33 33 34 35 35 36 35 35 36
12 12 12 12 12 13 13 14 15 16 16 16 16 17 18 18 18 18 18 19 20 21 21 21 21 20 20 20 20 21 21 21 20 19 18 16 13 11 10 9 7 10 13 17 18 18 19 21 23 24 23 23 23 24 26 26 26 27 28 28 27 26 26 26 26 26 27 26 26 27 27 27 28 29 30 32 34 35 34 34 35 35 34 33 33 33
14 14 15 14 14 14 14 15 15 16 17 17 17 18 18 18 19 19 20 20 20 21 21 21 21 21 20 19 19 20 20 20 21 20 20 19 17 15 14 13 10 10 14 18 19 20 20 20 22 24 24 24 24 25 26 26 27 29 30 30 30 29 30 29 29 29 29 29 29 30 30 29 29 29 30 33 34 36 36 35 35 34 33 32 31 30
15 16 16 17 17 17 18 17 17 17 18 18 19 20 20 20 20 21 21 22 22 21 21 22 21 20 20 20 19 19 19 19 20 20 20 20 20 19 17 15 13 12 14 16 17 18 19 20 21 23 23 24 25 27 28 29 29 30 31 32 32 32 32 33 32 32 32 31 32 32 32 31 30 30 31 32 34 36 37 36 36 34 32 30 29 28
18 18 18 18 18 19 19 20 20 20 20 20 21 21 22 23 22 22 22 23 24 23 22 22 21 20 19 20 19 18 18 18 19 19 19 19 20 20 20 19 15 14 14 14 14 16 19 20 21 22 23 24 26 29 30 30 31 32 33 34 35 34 35 36 36 34 34 34 34 34 34 33 31 31 31 32 34 35 36 36 36 34 31 29 27 27
21 21 21 21 21 21 20 20 22 22 22 22 22 22 23 24 24 24 24 24 24 25 24 23 22 21 19 19 19 18 18 17 18 18 19 19 19 19 20 21 19 16 14 14 12 12 16 19 20 21 22 22 24 27 28 28 29 31 33 35 36 36 36 37 38 37 36 36 36 36 36 34 32 31 32 32 33 35 36 36 35 33 30 28 26 26
21 22 22 23 23 24 23 22 23 24 24 24 24 24 24 25 25 24 25 25 24 25 26 24 23 23 21 20 20 19 18 18 17 18 18 19 19 19 19 20 21 19 16 14 12 11 12 15 18 19 20 20 21 22 23 25 27 30 31 33 35 36 37 37 38 38 37 36 36 35 35 34 31 31 32 32 33 35 37 37 35 32 29 27 25 24
22 22 22 23 24 24 25 25 25 25 26 27 27 26 26 27 27 26 26 26 25 25 27 26 24 24 23 21 20 20 19 18 18 18 18 19 20 20 19 19 20 20 18 15 14 12 11 12 15 16 16 17 21 24 24 26 29 31 30 32 35 36 36 34 36 37 36 34 33 33 33 32 30 30 31 31 32 35 37 36 34 30 28 26 24 23
22 23 23 24 25 25 26 26 27 27 27 28 29 28 27 27 29 28 28 27 26 25 27 27 24 24 24 21 20 21 20 19 18 18 19 20 20 20 20 19 20 21 20 17 15 13 11 11 13 15 13 14 18 25 28 30 31 31 31 34 37 36 33 31 33 34 32 30 31 31 31 30 29 29 30 30 31 34 36 35 32 29 27 25 23 22
21 22 22 23 25 26 27 28 29 29 29 30 31 30 29 28 29 30 30 30 28 26 28 28 25 23 23 21 20 20 20 19 18 18 18 19 20 21 20 20 20 21 21 20 18 15 12 11 12 14 14 12 13 20 28 33 33 32 33 36 37 35 31 29 30 31 29 28 28 28 28 28 28 28 29 28 29 32 34 33 31 28 26 24 22 21
22 22 21 22 25 25 25 27 29 30 31 32 33 33 31 31 30 30 30 31 29 28 28 29 27 23 20 20 21 20 20 19 19 19 19 19 19 20 21 21 21 21 21 21 20 18 15 12 11 12 12 12 12 15 23 30 32 33 33 35 36 33 30 28 28 28 26 25 25 26 27 27 27 27 27 27 27 30 33 32 29 27 25 23 21 19
25 24 23 23 26 26 24 25 26 27 29 32 34 35 33 32 32 31 31 30 30 29 29 29 28 25 20 19 21 21 20 21 20 20 21 21 19 20 21 21 21 22 22 22 21 21 18 14 12 12 12 13 13 13 18 24 28 31 32 34 34 30 28 27 26 25 24 24 23 25 26 26 26 26 26 25 26 28 30 29 28 26 24 22 20 18
27 27 26 26 28 30 28 26 27 27 28 29 31 34 34 34 33 33 33 31 30 30 30 30 29 28 23 21 21 21 21 22 21 21 22 22 22 21 21 22 22 22 23 23 22 22 20 17 14 13 12 13 14 15 17 18 21 27 31 33 32 28 25 24 23 23 23 22 22 24 25 25 25 25 24 24 24 26 28 27 26 25 24 21 19 17
29 29 28 28 30 33 32 30 30 31 30 29 29 31 34 34 33 33 33 33 32 31 31 31 30 30 28 25 23 22 23 23 22 22 22 22 23 23 22 22 22 22 23 23 23 22 21 19 17 15 13 13 15 17 16 15 17 22 27 29 30 27 23 22 21 21 21 21 21 23 24 24 24 24 23 23 23 24 26 26 24 24 23 20 18 16
31 31 30 30 31 34 36 35 35 35 35 34 31 30 32 34 34 34 33 33 33 33 32 33 31 30 30 29 26 25 25 24 23 22 22 22 22 24 24 23 22 23 23 23 23 23 23 21 18 17 16 16 17 17 17 16 17 20 23 25 27 25 23 21 20 20 20 20 20 22 23 23 23 22 22 22 22 22 24 24 23 23 23 21 18 16
35 34 33 33 32 34 37 38 39 40 40 38 35 33 32 33 35 35 34 33 33 34 35 35 33 31 31 31 29 28 27 27 25 24 23 23 23 23 23 23 23 23 23 23 23 23 23 22 19 18 19 19 19 19 18 17 17 19 21 23 24 23 21 21 19 18 19 19 20 21 22 22 21 21 21 21 20 20 21 22 22 22 23 21 19 16
38 38 36 36 36 36 37 39 40 42 43 42 39 38 36 35 35 35 36 35 34 34 36 37 35 33 33 32 31 30 29 28 27 26 25 25 25 23 21 21 22 22 22 22 23 24 23 22 19 18 19 22 21 19 18 17 17 18 20 21 22 21 20 20 19 18 18 18 18 19 20 20 20 20 20 20 20 19 19 19 20 21 22 22 19 17
42 41 39 39 39 39 39 40 41 42 45 45 42 42 41 38 35 35 36 36 35 34 36 38 38 36 35 34 33 32 30 29 29 28 27 27 27 24 22 21 21 21 22 22 24 24 23 21 19 17 20 23 23 20 17 16 16 18 21 22 21 20 19 19 18 18 17 17 16 17 18 18 18 19 19 19 19 18 17 17 18 18 20 21 20 18
45 45 43 42 42 42 42 42 43 44 46 47 45 44 45 42 39 37 37 36 35 34 34 36 39 38 37 36 35 33 32 31 29 28 28 29 28 26 23 22 21 21 22 23 24 24 23 21 18 17 19 21 21 19 17 16 17 19 22 22 21 20 19 18 17 17 16 16 15 15 16 17 16 17 18 18 18 17 16 16 16 16 17 19 20 19
49 48 47 46 45 46 45 45 46 46 48 49 47 46 46 47 46 43 41 39 37 35 33 34 37 39 38 38 38 36 34 32 30 29 29 30 29 27 25 24 22 22 22 22 23 23 21 19 18 17 17 18 17 17 17 16 16 19 21 21 20 19 18 17 17 16 15 15 15 14 14 15 15 16 16 17 17 16 16 15 15 15 15 16 18 19
52 51 50 50 49 49 48 47 48 48 50 52 51 49 49 50 49 48 47 44 40 37 35 34 35 37 39 40 40 38 36 34 31 30 30 31 30 28 26 25 24 23 22 22 22 21 20 18 18 16 16 15 15 16 16 15 15 16 18 19 19 17 16 16 16 16 15 15 15 14 14 14 14 15 15 15 15 16 15 15 14 14 14 14 15 16
56 54 53 53 53 52 51 50 49 50 52 54 54 52 52 53 52 51 51 48 43 40 39 37 35 35 38 41 42 40 38 36 34 33 32 32 32 31 28 26 25 25 24 23 22 20 19 18 17 16 15 14 13 13 14 13 13 14 15 16 16 15 14 14 14 14 15 15 14 14 14 13 13 13 14 15 14 15 15 15 15 14 13 13 13 14
59 57 56 56 57 56 55 53 52 53 54 56 57 56 55 56 55 54 54 53 48 44 41 39 38 36 36 39 43 43 41 39 37 36 35 34 34 34 31 29 27 26 26 25 24 21 19 17 17 16 16 14 12 12 12 12 11 12 13 14 14 14 13 13 13 13 14 14 14 14 15 14 13 13 13 13 13 14 15 15 14 13 13 12 12 13
61 60 59 59 60 59 58 57 57 56 56 58 60 59 58 59 58 57 56 57 54 49 44 41 39 39 37 38 42 44 44 42 40 38 38 37 37 36 35 32 30 29 28 28 26 24 21 18 17 17 16 15 14 13 13 12 11 12 12 13 13 14 13 13 13 14 14 14 14 14 14 15 14 14 14 13 13 13 14 14 13 13 12 12 12 12
63 63 62 62 62 61 60 60 61 60 59 60 61 62 61 61 61 60 60 60 58 55 51 45 40 39 40 39 40 44 46 46 43 41 40 40 39 38 37 36 33 32 31 30 29 27 24 21 19 18 18 17 17 16 15 14 12 12 12 12 12 13 13 13 13 14 14 14 14 14 14 14 14 14 14 14 13 13 13 13 13 13 13 12 11 11
65 65 64 64 65 64 63 64 64 64 62 62 63 64 64 65 64 63 63 63 62 60 57 51 44 40 40 41 41 43 46 48 47 44 43 42 41 41 40 39 37 35 34 33 32 30 28 26 23 21 20 20 19 19 18 16 14 13 13 13 12 12 13 13 13 13 14 14 14 14 14 14 14 15 14 14 14 14 14 14 14 14 13 13 12 11
67 67 66 66 67 67 67 67 67 66 66 66 66 66 66 67 68 67 66 66 66 64 62 57 51 44 41 41 41 43 45 48 50 49 48 45 43 43 43 43 42 40 38 37 35 34 32 30 28 26 24 23 22 22 21 19 17 16 15 15 14 13 13 13 14 14 14 14 14 14 14 14 14 14 15 15 15 15 14 14 14 14 14 14 14 13
69 68 67 68 69 69 69 70 70 69 68 69 69 69 69 70 71 71 70 69 69 68 66 63 57 51 45 42 42 42 44 49 52 53 52 49 47 46 46 46 45 44 42 41 39 37 36 34 32 30 28 27 26 25 24 22 20 19 18 17 16 15 14 14 14 14 14 14 15 15 15 15 15 14 14 15 15 15 16 16 15 15 15 15 15 15
71 70 70 71 72 71 71 72 73 72 71 71 71 72 72 73 74 74 74 72 71 70 69 67 63 58 51 46 44 42 44 49 54 56 55 53 51 50 49 49 49 48 46 45 43 42 40 39 36 34 32 31 29 28 28 27 24 22 21 20 19 18 17 16 15 15 15 15 16 16 16 16 15 15 15 15 15 16 16 16 16 16 16 16 16 15
73 73 74 75 74 73 74 75 75 74 73 73 74 75 75 76 76 76 76 75 74 73 71 69 67 63 58 52 47 44 44 48 53 57 58 56 55 53 52 52 51 51 50 48 47 45 44 43 41 39 36 34 33 32 31 31 28 26 24 23 22 21 20 20 19 18 18 18 18 18 18 17 16 16 16 16 16 17 17 17 17 17 17 16 16 16
76 76 77 77 75 75 77 79 79 77 76 76 78 79 79 79 79 79 78 78 76 75 73 71 69 67 63 57 51 47 46 47 51 57 60 59 58 57 56 55 54 52 52 52 51 49 48 47 45 43 41 39 37 35 35 34 32 30 28 27 25 25 24 24 23 22 21 21 21 21 21 20 19 18 17 17 17 18 18 17 17 17 18 17 17 17
79 79 80 80 78 77 79 81 82 81 79 80 81 81 82 83 83 81 80 81 80 78 76 73 71 70 67 62 55 50 48 48 50 55 60 62 62 61 59 58 57 55 54 54 54 53 51 50 49 47 45 43 41 40 38 37 35 33 31 30 29 28 28 28 27 25 24 24 24 24 24 23 23 21 19 19 19 19 19 19 18 18 18 18 18 18
Wind_Direction
294 299 306 316 331 344 355 1 1 2 5 9 15 13 342 302 281 255 237 235 237 240 241 240 236 235 233 227 222 218 218 218 219 222 220 221 227 229 233 234 227 226 226 225 227 224 218 221 232 239 242 243 241 239 236 233 235 241 245 248 248 248 248 248 249 250 252 253 253 253 254 255 255 254 254 254 254 254 255 256 257 257 257 258 258 258
291 298 309 325 343 350 352 358 1 1 7 14 18 16 7 345 303 279 263 247 242 240 241 241 238 236 235 231 227 222 219 218 218 223 224 219 220 224 233 236 228 222 223 226 229 228 224 224 232 242 244 243 243 243 242 239 239 243 247 250 253 253 253 253 253 253 254 254 255 255 254 254 254 255 255 256 256 256 256 257 257 257 258 258 258 258
296 302 314 334 347 350 349 354 359 1 7 14 21 22 21 21 353 305 312 297 260 244 240 240 238 237 235 231 230 226 222 221 219 223 225 222 220 224 234 241 234 224 218 221 226 228 228 227 231 242 245 242 243 244 244 244 245 247 249 251 253 253 253 252 252 252 252 253 254 255 255 255 255 255 255 256 256 256 255 255 256 256 256 257 257 257
299 305 320 338 345 350 351 355 358 3 10 14 17 20 23 27 18 346 333 325 297 265 247 240 238 240 238 234 232 230 227 225 223 224 225 223 222 224 234 240 237 227 218 216 221 224 227 229 234 244 248 246 245 246 246 247 248 250 252 253 253 253 253 252 251 251 251 252 253 254 256 257 258 258 257 257 256 255 255 254 254 254 254 254 254 255
299 310 328 339 343 350 357 0 1 5 11 13 13 15 17 23 27 24 13 355 12 354 295 245 233 238 241 238 236 235 232 228 227 225 222 218 216 219 228 232 232 228 220 215 220 225 229 236 241 243 246 249 250 251 252 253 253 254 256 257 256 255 254 253 253 253 252 252 253 255 257 259 259 259 258 257 256 256 255 255 254 253 253 253 253 253
306 320 331 340 346 352 0 4 3 6 10 8 8 10 10 13 22 29 31 31 32 24 17 344 219 229 242 242 241 242 238 235 231 224 219 216 217 224 229 228 225 225 221 219 221 226 231 241 245 244 245 250 255 258 260 259 257 257 257 258 258 257 257 256 256 255 255 255 256 258 259 260 261 260 258 256 256 255 255 255 255 254 254 254 254 254
313 328 333 344 354 353 359 2 0 3 9 5 1 4 6 7 13 22 27 31 38 40 38 43 77 200 232 238 239 244 245 244 237 228 225 222 223 230 230 224 223 221 220 219 221 225 228 234 243 247 250 253 256 258 259 259 258 259 259 258 258 259 260 260 260 259 260 261 262 263 263 263 264 263 261 258 257 256 256 256 255 255 255 255 255 255
324 335 337 347 355 352 354 359 359 1 6 4 356 357 2 4 6 11 18 31 39 39 37 38 48 102 147 186 213 233 249 247 236 225 224 221 222 229 229 223 222 221 218 217 220 224 225 229 239 246 250 252 254 255 254 256 258 260 259 259 259 260 261 262 262 263 264 264 265 266 266 267 267 267 266 263 260 258 259 260 260 259 259 258 257 256
335 339 339 346 351 349 350 355 357 357 3 4 351 351 359 1 1 4 10 28 38 40 41 37 37 54 72 88 136 199 235 234 222 214 215 214 217 223 225 221 219 219 217 215 218 221 222 228 237 242 245 251 255 257 256 257 258 259 258 258 258 259 260 261 262 263 264 265 265 265 265 266 267 267 267 266 263 262 263 264 265 264 263 262 261 260
336 338 342 347 346 345 348 353 355 353 356 357 344 347 358 360 0 3 8 22 33 41 43 39 39 44 45 45 43 41 117 204 204 210 212 210 209 213 217 216 214 213 213 215 220 223 222 225 233 241 245 251 256 259 261 260 260 259 259 259 259 258 258 259 261 263 264 265 266 265 265 265 266 267 267 267 266 265 266 266 267 266 265 264 264 264
335 341 347 347 345 345 349 353 353 352 352 351 348 355 3 4 6 6 8 16 19 32 39 37 40 43 40 37 34 36 41 169 190 200 210 210 206 204 210 214 212 209 209 213 222 228 226 225 231 240 245 250 254 259 263 264 264 265 264 262 260 259 259 260 261 262 264 266 268 268 268 268 269 269 269 269 268 268 267 267 267 267 266 266 265 265
340 345 347 349 350 352 357 2 3 2 3 6 10 13 15 17 21 18 16 16 10 17 30 33 37 39 38 36 35 40 45 69 182 195 206 211 207 202 206 212 211 209 212 217 225 230 230 229 233 239 244 249 254 260 265 265 267 270 270 267 264 263 263 264 264 263 264 267 268 269 269 270 270 270 270 270 269 269 268 268 268 267 267 267 266 266
349 351 352 357 3 7 14 20 22 22 23 27 30 29 30 32 33 30 25 23 16 10 11 15 29 34 31 29 31 39 44 54 103 185 205 212 214 207 206 211 212 212 215 220 226 232 233 233 236 240 244 249 255 260 264 266 270 273 272 271 270 268 266 266 266 265 266 268 268 269 270 270 270 270 270 270 270 269 269 268 268 268 267 267 266 266
6 9 12 15 20 26 31 32 34 34 35 36 37 36 37 38 37 35 32 30 29 22 12 8 16 23 19 13 18 33 40 46 62 89 186 213 221 218 213 214 216 218 221 225 228 231 234 236 238 242 247 253 258 262 264 268 272 274 275 273 272 271 270 269 269 269 268 268 269 270 271 271 271 271 271 271 271 271 270 269 269 268 268 267 267 266
30 33 34 34 36 38 39 39 38 39 39 39 38 38 38 38 37 36 34 32 33 32 29 25 20 17 14 8 8 19 30 36 49 59 67 151 214 222 224 223 221 223 228 232 233 232 235 238 240 244 250 256 261 263 265 269 273 276 276 273 272 274 274 272 271 270 269 270 271 272 272 272 273 273 273 273 273 273 272 272 271 270 269 268 267 267
47 47 46 47 47 44 42 42 41 41 43 42 40 39 38 38 37 35 34 33 34 34 34 34 31 25 24 22 16 10 12 19 30 43 56 66 100 212 230 235 231 230 234 237 238 237 239 242 245 249 254 259 263 265 267 271 273 275 276 277 280 281 278 276 275 274 273 272 273 273 274 275 276 277 277 276 277 277 276 275 274 272 271 270 269 268
47 48 48 48 46 45 43 43 42 41 42 42 42 40 37 37 37 36 34 32 33 34 34 34 34 32 30 28 24 20 16 15 15 20 39 62 75 132 233 246 241 233 235 241 243 244 244 246 250 253 258 262 264 263 265 269 270 271 276 285 290 287 283 280 278 277 276 275 275 276 277 278 280 282 283 284 284 285 285 283 281 278 275 273 271 270
40 40 40 40 39 37 35 34 35 37 36 36 38 38 35 33 32 32 31 29 29 29 31 32 32 32 32 28 24 24 23 20 18 15 11 352 265 214 213 241 252 236 225 230 239 245 248 247 248 251 255 256 256 257 261 268 271 272 277 287 291 288 286 284 282 281 280 280 281 282 283 285 287 290 292 293 293 293 293 291 288 285 281 277 275 274
32 29 28 28 27 25 22 20 21 24 25 24 26 27 28 28 25 24 24 24 22 21 23 25 26 27 28 26 23 21 20 18 16 15 14 6 336 265 221 213 236 244 235 228 230 240 246 246 244 244 247 248 251 258 264 270 274 275 279 286 289 287 287 286 285 285 284 284 286 286 288 291 293 295 297 298 298 298 298 297 294 290 286 282 278 276
22 19 16 14 13 12 10 8 9 12 12 11 11 10 12 15 16 15 14 15 14 13 13 15 18 21 21 19 19 18 18 16 13 10 10 8 355 327 289 246 231 235 244 244 241 241 243 245 245 246 249 252 254 260 265 269 272 273 278 284 287 286 285 285 285 285 285 285 287 288 291 293 296 298 299 300 301 302 302 302 300 296 291 286 282 277
3 0 359 358 358 358 356 356 356 357 357 358 359 358 359 1 2 2 2 3 4 4 4 5 7 10 14 13 10 11 11 11 11 9 6 3 356 343 338 326 276 245 244 247 247 245 241 242 248 250 250 253 255 258 263 268 272 275 279 283 285 285 284 284 285 285 286 287 288 290 291 293 296 299 302 304 305 306 307 308 305 301 296 291 286 280
345 343 341 341 341 341 341 343 345 344 343 344 344 345 346 347 348 348 348 348 351 353 353 354 356 358 1 3 4 3 3 3 4 5 4 2 356 346 341 339 323 289 267 258 253 251 249 247 251 254 257 261 263 265 267 270 273 276 277 278 279 280 281 282 282 283 284 286 288 289 290 293 296 299 303 306 308 310 311 311 310 305 300 294 288 283
337 335 333 331 330 330 330 331 330 330 331 331 331 332 333 334 336 336 335 335 338 341 342 343 347 349 349 351 354 355 354 355 355 357 358 358 357 352 344 338 332 319 297 279 266 263 265 264 261 262 266 271 275 277 277 276 277 279 278 278 279 279 279 279 279 279 281 282 283 285 288 291 295 299 303 307 309 312 314 314 313 308 303 297 291 286
334 332 331 330 327 325 325 324 323 322 323 322 321 321 322 323 325 326 326 327 328 331 332 334 337 340 339 340 344 345 345 347 348 349 351 352 353 353 349 342 334 325 317 306 288 275 274 276 273 269 268 272 277 279 280 280 280 281 283 285 286 284 281 280 279 277 278 279 280 282 285 288 293 298 303 307 311 314 316 316 315 311 306 300 294 289
328 327 326 325 324 324 324 323 323 322 320 319 317 316 315 316 318 320 321 322 323 323 325 328 331 332 332 330 332 335 336 338 340 341 343 345 347 348 349 346 341 331 322 316 305 284 274 276 278 276 275 278 281 282 284 286 286 286 287 288 288 287 284 282 280 279 277 277 278 279 282 285 291 298 303 308 312 316 318 319 317 313 308 303 297 292
334 330 326 322 319 319 319 319 320 320 320 319 318 317 316 315 315 316 317 318 320 318 318 323 326 326 327 326 324 325 327 329 332 334 336 338 339 341 343 345 344 339 330 322 315 300 282 276 276 278 283 289 292 293 295 298 299 297 293 291 290 289 286 282 279 278 278 278 278 277 279 284 290 297 303 309 315 319 321 320 318 314 310 305 300 296
348 345 342 335 328 324 320 317 315 314 315 315 316 317 317 316 315 316 315 315 317 316 313 317 321 319 321 324 320 317 318 320 322 325 328 330 331 333 336 339 341 341 337 328 319 314 300 282 275 275 282 289 293 297 303 307 308 305 300 299 299 294 289 283 278 276 276 277 277 276 278 284 291 297 303 310 318 322 322 321 319 317 313 308 304 300
352 353 353 348 343 339 335 329 323 318 313 310 309 310 313 315 315 316 315 315 317 316 312 315 318 315 316 320 317 312 312 313 313 315 319 321 322 325 329 332 334 337 338 333 324 318 307 290 281 279 282 285 285 290 297 304 308 305 304 308 307 298 291 284 276 273 274 275 275 275 278 285 292 297 302 310 319 323 323 322 321 319 316 311 307 303
348 349 353 351 346 346 346 343 338 333 326 318 311 307 307 308 310 312 313 313 315 316 313 314 317 314 313 316 314 312 313 310 306 307 311 313 315 318 321 324 326 329 333 333 329 323 313 301 290 286 286 279 268 275 285 294 302 304 305 311 311 302 294 285 275 273 274 274 275 276 279 285 292 297 302 310 319 324 324 324 324 323 319 315 311 307
344 344 348 347 342 342 346 346 344 342 338 332 325 317 310 304 302 304 306 308 310 312 311 312 313 312 312 312 312 314 315 312 307 304 305 307 309 311 312 315 319 321 324 328 329 326 318 307 297 291 290 282 264 259 267 279 293 300 302 310 313 305 296 289 281 277 277 275 277 278 280 286 292 297 302 309 320 326 326 326 328 327 323 318 314 311
343 342 345 346 341 338 341 342 341 340 340 338 334 328 320 309 300 296 296 299 303 306 306 306 307 308 308 309 312 315 315 313 311 309 305 303 302 303 304 306 311 314 316 321 325 325 320 309 298 291 290 291 285 276 274 282 292 296 299 309 315 311 302 295 288 283 281 281 280 279 281 287 292 297 302 310 320 327 328 329 332 332 328 322 318 314
341 341 345 348 343 339 339 341 339 336 336 336 335 333 328 319 308 297 290 290 294 297 299 300 301 302 304 306 310 313 314 314 316 315 311 305 298 296 297 300 304 308 310 313 318 321 318 310 299 290 287 290 291 291 297 302 301 295 295 306 316 317 310 303 295 290 288 287 284 281 283 288 292 297 302 309 320 328 329 332 337 337 333 327 322 318
337 338 342 347 344 340 339 342 341 338 336 335 334 334 331 326 318 305 293 286 285 287 290 292 295 298 300 302 304 307 309 312 316 318 316 310 301 295 294 295 298 302 305 308 311 316 315 308 299 291 288 288 287 290 298 308 310 300 294 302 315 321 318 311 304 298 294 290 285 283 284 288 292 297 303 309 319 327 331 335 341 343 340 334 328 323
333 334 338 343 343 339 338 341 342 340 339 338 337 336 333 331 327 318 304 291 282 280 282 285 288 293 296 297 299 301 304 307 312 316 318 314 306 298 293 291 292 296 300 303 306 309 310 307 299 293 292 292 289 291 296 301 310 307 298 302 316 323 323 319 311 302 297 292 286 283 284 288 293 298 303 308 316 325 331 337 345 349 347 343 337 331
328 331 335 339 340 337 335 338 339 339 339 339 339 339 336 334 331 326 316 303 289 279 276 277 281 286 289 291 294 296 298 302 307 312 315 313 308 302 294 289 288 291 295 299 301 304 305 304 299 295 297 297 294 293 294 296 304 306 301 306 317 323 324 323 317 306 297 291 287 285 286 289 295 299 303 307 314 322 329 338 348 355 354 351 347 341
325 328 332 334 335 335 335 336 336 335 335 336 339 340 338 335 333 330 324 315 302 287 278 275 276 278 281 284 287 290 292 297 302 307 311 312 310 308 300 292 289 289 291 294 296 298 299 299 299 299 301 303 300 296 294 295 301 303 301 306 316 321 323 324 322 315 304 295 290 289 290 293 297 301 304 306 312 319 326 335 347 358 0 358 355 352
323 326 329 330 330 331 333 333 334 333 331 331 336 338 336 335 334 332 329 323 314 300 286 277 273 273 276 279 281 284 287 291 296 301 306 308 310 310 304 296 292 289 288 289 290 291 292 292 296 300 300 301 302 300 297 299 305 307 304 305 311 316 321 323 324 323 317 307 297 291 291 293 296 300 302 305 309 316 323 332 343 356 3 4 2 0
322 324 326 328 327 327 330 331 332 331 328 327 332 335 335 334 335 335 333 328 321 311 296 283 275 271 272 275 277 279 282 285 290 295 299 300 305 307 304 298 295 290 286 285 285 286 288 288 289 289 290 294 301 305 305 306 311 310 307 304 305 309 317 322 323 324 323 317 306 295 290 291 293 296 299 302 306 311 318 327 337 349 1 6 7 6
321 322 324 326 325 325 326 328 329 329 325 324 328 332 332 332 333 334 333 329 324 317 305 291 279 272 269 270 273 275 277 280 284 287 288 291 296 300 299 295 293 290 288 286 285 286 288 288 285 282 281 287 296 303 304 303 304 303 302 303 305 306 311 318 322 324 327 326 321 311 299 293 293 293 295 298 302 305 312 322 331 341 352 2 9 11
320 321 322 323 323 323 324 325 326 324 322 322 325 328 328 329 330 332 331 329 326 321 312 300 287 276 269 266 268 271 272 274 276 278 279 282 286 290 291 289 287 286 286 286 287 288 289 287 285 282 279 280 286 292 296 298 300 301 302 307 312 312 311 315 319 323 327 331 331 327 316 305 297 292 291 293 296 299 306 313 321 331 342 352 4 11
318 320 321 321 321 321 322 323 322 320 319 320 323 324 325 326 327 329 328 327 327 324 317 309 297 283 271 266 265 267 269 270 270 271 272 275 277 279 282 282 281 281 283 283 285 288 289 287 284 282 281 280 281 283 288 294 300 304 309 316 323 325 322 319 320 321 326 331 334 335 332 324 313 302 295 292 293 296 300 304 310 319 330 341 353 4
314 317 319 319 319 319 320 320 319 317 318 319 320 322 323 323 324 325 325 324 325 324 320 314 305 293 279 268 263 264 265 265 266 266 267 268 270 273 275 276 277 276 277 278 281 284 285 284 282 281 281 280 278 277 281 288 296 303 311 320 328 333 334 333 331 331 332 333 336 339 338 335 331 323 313 305 299 296 297 299 303 309 319 329 340 351
312 314 316 316 317 318 318 317 316 316 317 318 318 319 321 321 321 322 322 322 322 323 321 317 310 300 289 275 264 261 261 262 263 264 264 265 267 269 271 273 273 273 272 273 276 279 279 279 278 278 279 278 276 276 278 283 289 295 304 313 322 329 334 338 341 343 345 346 346 345 341 337 335 334 330 325 319 311 305 302 301 303 309 318 330 340
311 312 313 314 315 316 316 315 314 315 316 316 315 317 318 318 318 319 320 320 320 320 320 318 313 305 296 284 270 261 259 260 260 261 261 263 263 265 266 268 268 268 268 269 271 273 274 274 273 273 273 274 274 276 277 280 282 287 294 302 309 316 322 329 335 339 344 349 351 351 350 347 344 341 337 335 332 328 323 317 312 309 307 310 317 327
310 311 312 312 313 313 313 313 313 314 314 314 314 315 316 316 316 317 318 318 318 318 318 317 315 309 300 291 280 267 259 257 258 258 257 258 260 261 262 263 263 264 264 265 266 267 269 270 269 267 268 269 271 273 274 276 279 283 287 291 297 303 309 316 322 327 332 337 342 345 348 351 351 351 350 346 342 337 332 328 326 323 319 316 314 314
309 310 310 310 310 311 312 312 311 312 313 312 313 314 314 313 314 315 316 316 316 316 316 315 314 311 304 296 287 275 263 256 255 255 255 255 256 258 258 258 259 260 260 261 262 263 264 266 266 266 266 266 267 270 272 275 277 280 282 284 288 292 297 303 310 316 320 326 330 334 338 341 345 349 352 352 350 348 344 339 336 334 331 328 324 319
308 308 307 307 308 310 311 310 309 310 311 312 312 313 312 312 313 313 314 314 314 315 314 313 312 311 307 299 290 280 269 258 253 253 253 253 254 255 256 256 257 257 258 259 259 259 260 262 263 264 265 266 266 268 271 273 275 277 279 281 283 285 289 293 298 304 310 316 321 326 329 332 335 338 342 345 346 347 349 349 347 345 341 337 333 329
305 305 305 305 307 310 310 308 307 308 310 310 311 310 310 311 312 311 312 313 313 312 312 311 310 309 307 301 292 284 273 262 254 251 251 251 252 253 254 255 255 255 256 256 257 258 258 258 260 261 263 265 267 268 270 271 273 274 276 278 279 281 284 287 290 294 301 307 313 317 321 324 327 330 332 335 336 337 341 345 347 348 348 346 342 337
302 304 304 305 307 309 308 306 306 307 309 309 308 308 309 310 309 309 310 311 310 310 309 309 308 307 306 302 295 287 278 267 258 252 250 249 250 251 252 253 254 254 255 255 255 256 257 257 258 259 261 263 265 267 269 270 272 272 273 274 276 278 280 283 285 289 294 300 305 309 312 316 320 322 325 327 329 330 332 335 338 340 343 345 345 343
301 303 304 305 307 307 306 305 305 307 308 307 307 308 309 308 308 308 309 308 308 308 307 307 307 306 304 301 296 290 282 272 263 256 251 249 248 248 249 251 252 253 254 255 255 255 255 256 257 258 260 261 263 265 267 269 271 272 271 272 273 275 276 278 281 285 289 294 298 302 306 309 311 315 318 320 322 323 325 327 330 331 333 336 339 340
302 304 304 305 306 306 305 304 305 306 306 306 307 307 307 306 306 307 307 307 306 306 305 305 305 303 301 299 296 291 284 276 267 258 253 249 247 246 247 248 249 250 252 254 255 255 255 255 257 258 259 260 261 263 265 267 269 270 271 272 272 273 275 276 278 281 284 287 291 295 300 303 305 307 312 314 316 318 319 321 323 325 325 327 330 331
Height
10659 10658 10657 10655 10653 10650 10648 10646 10645 10643 10641 10638 10636 10635 10634 10632 10631 10631 10630 10630 10630 10630 10631 10632 10633 10635 10636 10638 10640 10643 10645 10648 10649 10650 10652 10652 10653 10654 10654 10653 10654 10656 10656 10657 10659 10661 10664 10666 10666 10668 10670 10672 10673 10675 10676 10678 10679 10679 10681 10683 10685 10687 10688 10690 10691 10691 10692 10692 10692 10692 10692 10692 10692 10692 10693 10694 10695 10695 10695 10696 10696 10696 10697 10697 10698 10698
10658 10657 10656 10655 10653 10650 10648 10647 10645 10644 10642 10639 10637 10635 10633 10631 10630 10629 10628 10627 10627 10627 10628 10628 10630 10632 10633 10635 10638 10641 10643 10644 10645 10646 10648 10650 10651 10652 10652 10650 10651 10653 10653 10655 10657 10658 10661 10663 10663 10664 10666 10667 10669 10670 10672 10673 10675 10676 10678 10679 10681 10683 10685 10685 10686 10686 10686 10687 10687 10688 10688 10688 10688 10689 10689 10689 10690 10690 10690 10690 10690 10690 10690 10690 10691 10691
10657 10656 10655 10654 10652 10651 10649 10646 10645 10643 10641 10639 10638 10635 10633 10631 10630 10628 10626 10625 10625 10625 10625 10625 10627 10629 10631 10633 10634 10637 10639 10639 10641 10642 10644 10647 10649 10652 10651 10648 10648 10649 10651 10654 10656 10657 10658 10660 10661 10662 10663 10664 10665 10666 10667 10669 10671 10673 10674 10675 10676 10677 10678 10679 10680 10681 10681 10682 10682 10683 10683 10683 10683 10684 10685 10685 10685 10685 10684 10684 10683 10683 10683 10683 10683 10684
10655 10655 10654 10653 10652 10651 10649 10647 10645 10643 10641 10638 10637 10636 10634 10632 10631 10628 10627 10626 10625 10624 10624 10624 10625 10626 10628 10630 10631 10633 10635 10636 10638 10639 10641 10644 10647 10651 10648 10645 10644 10645 10648 10653 10654 10655 10657 10658 10659 10660 10659 10660 10661 10662 10664 10666 10668 10669 10670 10671 10672 10672 10673 10674 10676 10676 10677 10677 10678 10678 10679 10679 10679 10679 10681 10680 10679 10678 10677 10677 10677 10676 10676 10676 10676 10676
10654 10654 10653 10653 10652 10651 10649 10647 10645 10643 10641 10639 10637 10636 10635 10634 10632 10630 10628 10627 10626 10625 10624 10623 10623 10624 10625 10627 10628 10630 10631 10633 10634 10635 10638 10641 10644 10644 10639 10638 10640 10641 10645 10649 10651 10652 10655 10655 10655 10655 10656 10656 10657 10658 10660 10662 10664 10666 10666 10667 10668 10668 10670 10671 10671 10672 10673 10673 10674 10674 10675 10675 10675 10674 10675 10674 10672 10672 10672 10671 10671 10670 10670 10670 10670 10670
10653 10653 10652 10652 10652 10650 10648 10646 10645 10644 10642 10640 10638 10637 10635 10634 10632 10631 10629 10628 10627 10626 10624 10622 10622 10623 10623 10624 10625 10627 10628 10629 10630 10632 10633 10636 10639 10635 10630 10633 10636 10639 10643 10645 10646 10648 10650 10652 10651 10650 10651 10652 10653 10655 10656 10658 10660 10661 10662 10663 10663 10664 10665 10666 10667 10667 10668 10669 10669 10670 10670 10670 10669 10668 10668 10667 10666 10666 10666 10665 10665 10664 10664 10664 10664 10663
10652 10652 10652 10651 10651 10649 10648 10646 10645 10644 10642 10641 10639 10637 10635 10634 10633 10631 10630 10629 10627 10626 10625 10623 10622 10622 10622 10623 10623 10624 10624 10625 10627 10629 10629 10631 10632 10626 10625 10631 10634 10636 10640 10642 10643 10645 10646 10648 10647 10646 10647 10649 10650 10651 10652 10653 10655 10656 10657 10658 10659 10660 10660 10661 10662 10662 10663 10663 10663 10664 10664 10663 10662 10661 10660 10661 10660 10659 10659 10659 10658 10658 10658 10658 10657 10657
10651 10651 10650 10650 10650 10649 10648 10647 10645 10643 10642 10641 10640 10638 10636 10634 10633 10632 10631 10629 10627 10626 10625 10624 10622 10622 10621 10622 10622 10622 10622 10621 10623 10625 10625 10627 10626 10622 10624 10630 10633 10634 10637 10639 10641 10643 10644 10644 10644 10644 10645 10646 10647 10648 10649 10650 10651 10652 10653 10654 10655 10656 10656 10656 10657 10657 10658 10658 10657 10657 10657 10656 10655 10654 10654 10654 10654 10653 10652 10652 10652 10651 10651 10651 10650 10650
10650 10650 10650 10649 10649 10649 10648 10648 10646 10644 10642 10641 10640 10638 10637 10635 10634 10633 10632 10630 10628 10627 10625 10624 10623 10622 10622 10622 10621 10621 10620 10619 10620 10621 10621 10622 10622 10621 10625 10629 10631 10632 10634 10636 10638 10639 10641 10643 10642 10643 10644 10645 10645 10646 10647 10647 10648 10648 10649 10650 10651 10651 10652 10651 10652 10652 10652 10652 10651 10651 10650 10650 10649 10648 10648 10647 10647 10647 10646 10645 10645 10644 10644 10643 10642 10642
10650 10649 10649 10649 10649 10648 10648 10647 10646 10644 10642 10641 10640 10639 10637 10636 10634 10633 10632 10630 10629 10628 10627 10625 10624 10623 10622 10622 10621 10620 10619 10618 10618 10619 10620 10620 10620 10622 10625 10627 10628 10630 10631 10633 10635 10637 10639 10640 10641 10642 10642 10643 10643 10643 10644 10644 10645 10645 10645 10646 10647 10647 10647 10646 10647 10647 10647 10645 10645 10644 10644 10644 10643 10642 10641 10641 10640 10640 10639 10638 10637 10637 10636 10635 10634 10633
10649 10649 10649 10649 10649 10648 10648 10647 10645 10644 10642 10642 10640 10639 10638 10636 10635 10633 10632 10631 10630 10629 10627 10626 10625 10624 10623 10622 10621 10619 10618 10618 10618 10618 10618 10619 10620 10622 10624 10624 10626 10628 10629 10631 10633 10634 10636 10637 10638 10639 10640 10639 10639 10639 10639 10640 10640 10641 10641 10642 10642 10642 10641 10641 10642 10642 10641 10639 10638 10637 10637 10637 10636 10635 10634 10633 10633 10632 10631 10630 10629 10628 10627 10626 10625 10624
10650 10649 10649 10649 10649 10648 10648 10647 10645 10644 10643 10642 10640 10639 10638 10637 10635 10633 10632 10630 10630 10629 10628 10627 10626 10625 10624 10622 10621 10620 10619 10619 10618 10618 10618 10619 10620 10622 10623 10623 10625 10627 10628 10630 10631 10632 10634 10635 10636 10636 10636 10636 10635 10635 10635 10635 10636 10636 10637 10637 10637 10637 10636 10636 10636 10636 10635 10633 10631 10631 10630 10630 10629 10628 10626 10626 10625 10624 10623 10622 10621 10620 10619 10617 10616 10615
10650 10649 10649 10649 10648 10648 10647 10647 10646 10644 10643 10642 10640 10639 10638 10637 10635 10634 10632 10631 10630 10629 10628 10628 10626 10625 10624 10623 10622 10621 10620 10620 10619 10619 10619 10619 10620 10622 10623 10623 10624 10626 10627 10628 10629 10631 10632 10633 10633 10633 10633 10633 10632 10632 10632 10632 10632 10631 10631 10632 10632 10631 10630 10629 10629 10629 10628 10627 10625 10624 10623 10622 10621 10620 10619 10618 10617 10616 10615 10614 10613 10612 10610 10609 10608 10607
10650 10650 10649 10649 10648 10648 10647 10647 10646 10645 10643 10642 10641 10640 10639 10637 10636 10635 10634 10632 10631 10630 10629 10628 10627 10626 10625 10624 10623 10622 10621 10621 10620 10620 10619 10619 10619 10620 10622 10623 10624 10625 10626 10627 10627 10628 10629 10630 10630 10630 10630 10630 10630 10629 10629 10629 10628 10627 10627 10627 10626 10625 10624 10623 10622 10621 10621 10620 10618 10617 10617 10615 10613 10613 10612 10611 10610 10608 10607 10606 10605 10604 10602 10600 10599 10598
10650 10650 10650 10649 10649 10649 10648 10647 10646 10645 10644 10643 10642 10640 10639 10638 10637 10636 10635 10634 10632 10631 10630 10629 10627 10626 10625 10624 10624 10623 10623 10622 10621 10620 10620 10619 10619 10619 10620 10621 10623 10624 10624 10625 10625 10626 10627 10627 10627 10628 10628 10628 10627 10627 10626 10625 10624 10625 10624 10623 10622 10620 10618 10617 10615 10615 10614 10614 10612 10611 10610 10608 10606 10606 10606 10605 10603 10601 10600 10599 10597 10596 10594 10592 10590 10590
10652 10651 10651 10651 10650 10650 10649 10648 10647 10646 10645 10644 10642 10641 10641 10640 10639 10638 10636 10635 10634 10633 10631 10630 10628 10627 10626 10625 10624 10623 10623 10622 10622 10621 10620 10620 10620 10620 10620 10620 10620 10622 10622 10622 10623 10624 10624 10624 10625 10625 10625 10624 10624 10623 10623 10622 10621 10621 10620 10618 10616 10614 10612 10611 10610 10609 10609 10608 10607 10606 10605 10604 10602 10601 10600 10599 10597 10595 10594 10592 10590 10588 10586 10584 10583 10583
10654 10653 10653 10652 10651 10651 10650 10649 10648 10647 10646 10645 10644 10643 10642 10641 10640 10639 10638 10637 10636 10635 10633 10632 10630 10628 10627 10626 10625 10624 10623 10622 10622 10621 10621 10621 10620 10620 10620 10619 10618 10619 10620 10620 10620 10621 10621 10621 10621 10621 10621 10621 10620 10620 10619 10619 10618 10617 10616 10614 10612 10610 10608 10607 10606 10605 10604 10604 10603 10602 10601 10600 10598 10597 10595 10594 10592 10590 10588 10586 10584 10581 10579 10577 10576 10576
10655 10654 10654 10653 10652 10652 10651 10651 10649 10648 10647 10646 10645 10644 10643 10642 10641 10640 10639 10638 10637 10636 10635 10634 10632 10630 10629 10627 10626 10625 10624 10623 10622 10622 10621 10621 10620 10620 10620 10619 10618 10617 10618 10618 10618 10618 10618 10618 10618 10618 10618 10618 10617 10616 10616 10615 10614 10613 10612 10611 10609 10607 10606 10605 10603 10603 10602 10601 10600 10599 10598 10596 10595 10593 10591 10589 10587 10585 10583 10580 10578 10575 10572 10570 10569 10569
10656 10655 10655 10654 10653 10653 10652 10651 10650 10649 10648 10647 10646 10645 10644 10643 10642 10641 10640 10639 10638 10637 10636 10635 10633 10632 10630 10629 10627 10626 10625 10624 10623 10622 10621 10621 10620 10619 10619 10619 10618 10617 10617 10617 10617 10617 10616 10615 10615 10615 10615 10615 10614 10613 10613 10612 10611 10610 10609 10608 10607 10605 10604 10602 10601 10600 10599 10598 10597 10596 10594 10593 10591 10589 10587 10585 10583 10580 10578 10575 10573 10570 10567 10565 10564 10563
10656 10656 10655 10654 10654 10653 10652 10651 10650 10649 10648 10647 10646 10645 10644 10643 10642 10641 10640 10639 10638 10637 10636 10635 10634 10632 10631 10630 10629 10627 10626 10625 10624 10622 10622 10621 10620 10619 10618 10618 10618 10617 10617 10616 10615 10615 10614 10613 10613 10613 10612 10612 10611 10610 10610 10609 10609 10607 10606 10605 10604 10603 10601 10600 10598 10597 10596 10595 10594 10592 10591 10589 10588 10586 10584 10581 10578 10576 10574 10571 10568 10565 10562 10560 10558 10557
10656 10656 10655 10654 10654 10653 10652 10651 10650 10649 10648 10647 10646 10645 10644 10643 10642 10641 10640 10639 10638 10636 10635 10634 10633 10632 10631 10630 10629 10628 10626 10625 10624 10623 10621 10620 10619 10618 10617 10617 10617 10616 10616 10615 10614 10613 10612 10612 10611 10611 10610 10609 10609 10608 10607 10607 10606 10605 10604 10603 10601 10600 10598 10597 10596 10594 10593 10592 10591 10589 10588 10587 10585 10583 10580 10577 10574 10572 10569 10566 10563 10560 10557 10555 10553 10552
10657 10656 10655 10654 10654 10653 10652 10651 10650 10649 10648 10646 10645 10645 10644 10643 10641 10640 10639 10638 10637 10636 10635 10634 10633 10631 10630 10630 10629 10628 10627 10625 10624 10623 10621 10620 10619 10617 10616 10615 10615 10614 10613 10612 10611 10610 10610 10610 10609 10608 10607 10607 10606 10605 10605 10604 10603 10603 10602 10600 10599 10597 10596 10594 10593 10592 10591 10590 10588 10587 10585 10584 10582 10580 10577 10574 10571 10568 10565 10562 10559 10555 10553 10550 10548 10547
10656 10656 10655 10654 10653 10652 10651 10651 10650 10649 10648 10646 10645 10644 10643 10642 10641 10639 10638 10637 10636 10635 10634 10633 10632 10631 10629 10628 10628 10627 10626 10625 10623 10622 10621 10619 10618 10616 10615 10614 10613 10611 10610 10608 10608 10607 10606 10606 10606 10605 10604 10603 10602 10602 10601 10600 10600 10600 10599 10597 10596 10594 10593 10591 10591 10590 10588 10587 10586 10584 10582 10581 10579 10577 10575 10572 10568 10565 10561 10558 10554 10551 10548 10546 10544 10542
10656 10655 10654 10653 10652 10651 10651 10650 10649 10648 10647 10646 10645 10643 10642 10641 10640 10639 10637 10636 10634 10633 10633 10632 10631 10631 10629 10628 10627 10626 10625 10624 10623 10621 10620 10619 10617 10616 10614 10612 10611 10610 10608 10606 10605 10605 10603 10602 10602 10602 10601 10601 10600 10599 10598 10598 10597 10597 10596 10594 10592 10591 10589 10588 10587 10587 10586 10584 10583 10581 10580 10578 10576 10574 10572 10569 10565 10562 10558 10554 10551 10547 10544 10542 10540 10538
10654 10653 10653 10652 10651 10650 10650 10649 10648 10646 10646 10645 10644 10642 10641 10639 10638 10637 10636 10635 10633 10631 10631 10630 10629 10629 10628 10627 10626 10625 10624 10623 10622 10620 10619 10618 10617 10615 10614 10612 10610 10608 10607 10605 10603 10602 10602 10601 10600 10599 10600 10600 10598 10597 10596 10596 10595 10593 10592 10590 10588 10586 10585 10584 10583 10583 10582 10581 10580 10578 10577 10575 10574 10571 10569 10566 10563 10559 10555 10551 10547 10544 10541 10538 10536 10534
10652 10652 10651 10650 10649 10648 10647 10647 10646 10645 10644 10643 10642 10641 10639 10638 10637 10636 10635 10633 10632 10630 10628 10628 10628 10626 10626 10625 10624 10623 10622 10621 10620 10619 10618 10617 10615 10614 10613 10611 10609 10607 10605 10603 10602 10601 10600 10599 10599 10598 10598 10597 10596 10595 10594 10593 10591 10589 10588 10586 10584 10582 10580 10579 10579 10578 10578 10578 10577 10575 10574 10572 10571 10569 10566 10563 10559 10556 10552 10548 10544 10541 10537 10535 10532 10530
10651 10650 10649 10647 10646 10645 10644 10644 10643 10643 10641 10640 10639 10638 10637 10635 10634 10634 10633 10631 10631 10629 10626 10626 10626 10624 10623 10623 10622 10620 10620 10618 10618 10617 10615 10614 10613 10612 10611 10610 10608 10606 10604 10602 10601 10600 10599 10598 10597 10597 10596 10595 10593 10591 10590 10590 10588 10586 10585 10584 10581 10578 10576 10575 10574 10574 10574 10574 10573 10571 10570 10569 10568 10566 10563 10560 10557 10553 10549 10545 10542 10538 10535 10532 10529 10527
10650 10649 10648 10646 10644 10643 10642 10641 10640 10639 10638 10637 10636 10635 10635 10633 10632 10631 10630 10629 10628 10627 10624 10623 10624 10622 10620 10620 10619 10618 10617 10616 10615 10614 10613 10612 10611 10610 10609 10607 10606 10604 10603 10601 10600 10599 10598 10597 10596 10595 10594 10594 10593 10591 10589 10587 10586 10583 10582 10581 10578 10574 10573 10572 10570 10569 10569 10570 10569 10568 10567 10566 10565 10563 10560 10558 10555 10551 10547 10543 10539 10535 10532 10529 10527 10524
10650 10649 10648 10646 10644 10642 10641 10639 10637 10636 10634 10633 10633 10632 10632 10631 10629 10628 10626 10625 10625 10624 10622 10620 10620 10620 10618 10617 10617 10615 10614 10614 10613 10612 10611 10610 10608 10607 10606 10605 10604 10603 10601 10599 10598 10598 10597 10595 10594 10593 10592 10592 10593 10592 10589 10585 10583 10581 10579 10578 10574 10570 10569 10568 10566 10565 10566 10566 10565 10564 10564 10563 10562 10560 10558 10555 10552 10549 10545 10541 10537 10533 10529 10527 10524 10522
10650 10649 10648 10646 10643 10642 10641 10639 10637 10634 10632 10630 10629 10628 10628 10628 10626 10625 10624 10622 10621 10621 10619 10617 10617 10616 10616 10615 10614 10613 10612 10611 10610 10609 10608 10608 10606 10605 10604 10603 10602 10600 10599 10597 10596 10595 10595 10594 10593 10592 10591 10590 10590 10590 10588 10584 10581 10578 10576 10575 10571 10567 10565 10564 10563 10562 10562 10562 10562 10561 10560 10560 10559 10558 10555 10553 10550 10547 10543 10539 10535 10531 10527 10524 10522 10520
10650 10648 10648 10646 10643 10641 10641 10639 10637 10635 10633 10630 10627 10626 10624 10624 10623 10622 10621 10620 10619 10618 10617 10615 10613 10613 10613 10613 10611 10610 10609 10608 10607 10606 10606 10605 10604 10603 10601 10600 10599 10598 10597 10595 10594 10593 10592 10591 10591 10590 10589 10588 10587 10586 10585 10582 10579 10575 10573 10571 10568 10565 10562 10561 10560 10559 10559 10559 10558 10558 10557 10557 10556 10555 10553 10550 10548 10545 10541 10537 10533 10529 10526 10523 10520 10518
10648 10647 10646 10645 10642 10640 10639 10639 10637 10635 10633 10631 10628 10625 10622 10621 10619 10618 10617 10617 10616 10615 10613 10612 10610 10609 10610 10610 10609 10608 10607 10606 10604 10603 10603 10602 10601 10600 10598 10597 10596 10595 10594 10593 10591 10591 10590 10589 10588 10587 10586 10586 10584 10583 10581 10579 10576 10573 10571 10569 10566 10563 10560 10559 10558 10557 10556 10556 10556 10555 10554 10554 10553 10552 10550 10548 10546 10543 10540 10536 10532 10528 10524 10521 10519 10517
10647 10645 10644 10643 10641 10638 10637 10637 10635 10633 10631 10630 10628 10625 10621 10618 10616 10614 10613 10612 10612 10612 10610 10608 10607 10606 10606 10606 10606 10606 10604 10603 10602 10601 10600 10599 10597 10596 10595 10594 10593 10592 10591 10590 10589 10588 10587 10586 10585 10584 10584 10583 10582 10581 10579 10576 10574 10571 10568 10567 10564 10561 10559 10557 10556 10555 10554 10553 10553 10552 10552 10551 10550 10549 10547 10546 10544 10542 10539 10535 10531 10527 10523 10520 10518 10516
10644 10643 10642 10641 10639 10636 10634 10633 10632 10630 10628 10626 10625 10623 10619 10616 10613 10611 10609 10608 10608 10607 10606 10605 10604 10603 10602 10602 10602 10602 10601 10601 10600 10599 10597 10596 10594 10593 10592 10591 10590 10589 10588 10587 10586 10585 10584 10583 10582 10581 10580 10579 10579 10577 10576 10574 10571 10568 10566 10565 10562 10559 10557 10555 10553 10552 10551 10551 10550 10550 10549 10548 10548 10547 10545 10543 10542 10540 10537 10534 10530 10526 10523 10520 10517 10515
10640 10640 10639 10638 10637 10635 10632 10630 10628 10626 10624 10623 10621 10619 10617 10613 10611 10608 10605 10604 10603 10603 10602 10601 10601 10601 10600 10598 10598 10597 10597 10597 10597 10596 10595 10593 10591 10590 10589 10588 10587 10586 10585 10584 10583 10582 10581 10580 10579 10578 10576 10575 10575 10574 10572 10571 10569 10566 10564 10562 10560 10558 10555 10553 10551 10550 10549 10548 10548 10547 10547 10546 10545 10544 10543 10542 10540 10538 10536 10533 10530 10526 10523 10520 10517 10514
10636 10636 10636 10634 10633 10632 10630 10627 10625 10622 10619 10618 10617 10615 10613 10611 10609 10606 10603 10600 10599 10598 10597 10596 10597 10597 10596 10595 10594 10593 10593 10593 10594 10593 10592 10590 10589 10587 10586 10585 10584 10583 10582 10581 10579 10578 10577 10576 10575 10574 10573 10572 10571 10570 10569 10567 10566 10564 10561 10559 10558 10556 10554 10552 10550 10548 10547 10546 10545 10545 10544 10543 10543 10542 10541 10540 10538 10537 10535 10533 10529 10526 10523 10520 10517 10514
10632 10632 10632 10631 10629 10628 10627 10625 10623 10620 10616 10613 10613 10611 10609 10607 10606 10603 10600 10598 10595 10594 10593 10592 10592 10592 10591 10591 10590 10589 10589 10589 10590 10590 10589 10587 10586 10585 10583 10582 10581 10580 10579 10578 10576 10575 10574 10573 10572 10571 10570 10569 10567 10566 10565 10564 10563 10561 10559 10557 10556 10554 10552 10550 10548 10546 10544 10543 10542 10542 10541 10541 10540 10539 10538 10538 10537 10535 10534 10532 10529 10526 10523 10521 10518 10515
10628 10627 10627 10627 10625 10623 10622 10620 10618 10617 10613 10609 10608 10608 10604 10602 10601 10600 10597 10595 10592 10590 10588 10587 10586 10586 10586 10586 10585 10585 10585 10585 10585 10586 10585 10583 10582 10581 10580 10579 10578 10577 10576 10574 10573 10572 10570 10569 10569 10568 10567 10566 10565 10563 10562 10561 10560 10558 10556 10555 10554 10552 10551 10549 10547 10545 10543 10541 10540 10539 10538 10538 10537 10537 10536 10535 10535 10533 10532 10531 10529 10526 10524 10521 10519 10516
10623 10623 10622 10622 10620 10618 10617 10616 10613 10611 10608 10604 10603 10603 10601 10598 10596 10595 10593 10591 10588 10586 10584 10582 10581 10581 10581 10581 10580 10580 10581 10581 10581 10582 10581 10579 10578 10577 10576 10575 10575 10574 10573 10572 10570 10569 10567 10566 10565 10564 10564 10563 10563 10561 10560 10559 10557 10556 10554 10553 10552 10551 10549 10547 10545 10543 10542 10540 10538 10537 10536 10535 10535 10534 10534 10533 10533 10532 10531 10530 10528 10526 10524 10522 10520 10517
10618 10619 10618 10616 10615 10613 10612 10611 10609 10606 10603 10599 10598 10598 10596 10595 10592 10590 10588 10587 10585 10582 10580 10577 10576 10576 10576 10575 10575 10575 10575 10576 10576 10577 10575 10574 10574 10573 10572 10571 10571 10570 10569 10568 10567 10566 10565 10564 10562 10561 10560 10560 10559 10558 10557 10556 10555 10554 10552 10551 10550 10549 10548 10546 10544 10542 10540 10539 10537 10535 10534 10533 10533 10532 10532 10531 10530 10530 10529 10528 10527 10526 10524 10522 10520 10518
10613 10613 10613 10611 10609 10608 10607 10606 10604 10601 10597 10594 10593 10592 10591 10589 10588 10586 10583 10581 10580 10578 10575 10573 10571 10570 10570 10570 10569 10570 10570 10570 10571 10571 10570 10569 10568 10568 10568 10567 10566 10566 10565 10565 10564 10563 10562 10561 10560 10558 10558 10557 10556 10556 10555 10554 10553 10552 10550 10549 10548 10547 10546 10544 10543 10541 10539 10538 10536 10534 10533 10532 10531 10530 10530 10529 10528 10528 10527 10527 10526 10525 10523 10522 10520 10519
10607 10607 10608 10606 10603 10602 10601 10600 10598 10596 10592 10589 10586 10586 10585 10583 10582 10581 10578 10575 10575 10574 10571 10569 10567 10565 10564 10564 10564 10564 10564 10564 10564 10565 10564 10563 10562 10562 10563 10563 10563 10562 10562 10561 10560 10560 10560 10558 10557 10556 10555 10554 10554 10553 10553 10552 10551 10550 10549 10548 10547 10546 10544 10543 10541 10539 10538 10536 10534 10533 10532 10531 10530 10529 10528 10527 10527 10526 10525 10525 10524 10523 10522 10521 10520 10518
10600 10600 10601 10600 10597 10596 10595 10593 10591 10590 10588 10584 10580 10579 10579 10576 10574 10573 10572 10569 10568 10568 10566 10565 10563 10561 10559 10558 10558 10558 10558 10558 10558 10559 10559 10558 10558 10557 10558 10558 10558 10558 10558 10557 10557 10557 10557 10556 10555 10553 10553 10552 10551 10551 10550 10550 10549 10548 10547 10546 10545 10545 10543 10542 10540 10538 10537 10535 10533 10532 10532 10531 10530 10529 10527 10526 10525 10525 10524 10523 10523 10522 10521 10520 10519 10518
10595 10593 10593 10592 10590 10590 10589 10586 10583 10582 10581 10579 10575 10572 10571 10570 10567 10566 10565 10563 10561 10560 10559 10559 10558 10557 10554 10553 10552 10551 10551 10551 10552 10553 10553 10553 10553 10552 10552 10553 10553 10553 10553 10553 10554 10553 10553 10553 10552 10551 10550 10549 10548 10548 10547 10547 10547 10546 10545 10544 10543 10543 10542 10541 10540 10538 10536 10535 10534 10532 10531 10531 10530 10529 10527 10526 10524 10524 10523 10522 10521 10520 10519 10519 10518 10517
10589 10587 10586 10584 10582 10581 10581 10579 10576 10574 10573 10572 10569 10566 10563 10562 10560 10558 10557 10556 10554 10553 10552 10551 10551 10550 10549 10547 10546 10545 10545 10545 10545 10545 10546 10546 10547 10547 10547 10547 10547 10548 10548 10548 10549 10549 10549 10549 10549 10548 10547 10546 10545 10545 10545 10544 10544 10543 10543 10542 10541 10541 10540 10539 10538 10537 10536 10535 10534 10532 10531 10531 10530 10528 10527 10525 10524 10523 10522 10521 10520 10519 10518 10517 10517 10516
10582 10580 10579 10577 10575 10573 10573 10570 10567 10566 10565 10563 10562 10560 10556 10554 10552 10551 10550 10549 10547 10545 10544 10543 10543 10543 10542 10541 10540 10539 10538 10538 10538 10537 10538 10539 10540 10540 10540 10540 10541 10542 10542 10543 10544 10544 10545 10545 10545 10544 10544 10543 10542 10542 10542 10541 10541 10541 10540 10539 10539 10538 10538 10538 10537 10536 10535 10534 10533 10532 10531 10530 10529 10528 10526 10525 10524 10522 10521 10520 10519 10518 10517 10516 10515 10515
10573 10573 10571 10569 10567 10566 10565 10561 10558 10558 10557 10554 10552 10551 10548 10546 10544 10542 10542 10542 10540 10538 10536 10535 10534 10535 10535 10534 10533 10532 10531 10531 10530 10529 10530 10532 10533 10533 10533 10534 10534 10535 10536 10536 10537 10538 10539 10539 10540 10540 10540 10539 10539 10539 10538 10538 10538 10538 10537 10537 10537 10536 10536 10535 10535 10534 10533 10532 10531 10530 10530 10529 10528 10527 10526 10524 10523 10522 10521 10519 10518 10517 10516 10515 10514 10514
10565 10565 10563 10560 10559 10559 10557 10552 10549 10549 10549 10547 10544 10542 10540 10539 10537 10534 10533 10533 10532 10530 10528 10527 10526 10526 10526 10526 10525 10525 10524 10522 10521 10521 10522 10524 10525 10526 10526 10526 10527 10527 10529 10529 10530 10532 10533 10533 10534 10535 10535 10535 10535 10535 10535 10535 10535 10535 10535 10534 10534 10534 10534 10533 10533 10532 10532 10531 10530 10529 10528 10527 10526 10525 10524 10523 10522 10521 10520 10519 10517 10516 10515 10514 10513 10513
10556 10557 10554 10552 10553 10552 10547 10542 10540 10541 10541 10539 10535 10534 10533 10531 10529 10527 10525 10523 10522 10521 10520 10518 10517 10516 10516 10517 10516 10517 10517 10515 10513 10513 10514 10515 10516 10517 10518 10519 10519 10520 10521 10522 10523 10525 10526 10527 10528 10529 10530 10530 10531 10531 10530 10530 10531 10532 10532 10532 10532 10532 10531 10531 10531 10530 10530 10529 10528 10527 10526 10525 10524 10523 10522 10522 10521 10519 10518 10517 10516 10515 10514 10513 10512 10511
10548 10548 10545 10543 10546 10544 10537 10531 10530 10532 10533 10531 10526 10524 10523 10521 10519 10518 10517 10514 10513 10512 10511 10509 10508 10507 10506 10506 10507 10507 10507 10507 10505 10504 10505 10507 10508 10508 10509 10510 10512 10513 10514 10515 10516 10518 10519 10520 10521 10523 10524 10525 10526 10526 10526 10526 10527 10527 10528 10528 10528 10528 10528 10527 10528 10528 10527 10527 10526 10525 10524 10523 10522 10521 10521 10520 10519 10518 10517 10516 10515 10514 10513 10512 10511 10510
10540 10540 10536 10534 10536 10535 10529 10522 10520 10521 10523 10522 10519 10516 10513 10509 10507 10508 10506 10503 10501 10501 10500 10500 10499 10497 10495 10495 10496 10497 10497 10497 10496 10495 10496 10497 10498 10499 10500 10501 10503 10506 10507 10507 10509 10510 10512 10513 10514 10516 10518 10519 10520 10521 10521 10521 10522 10523 10523 10524 10524 10524 10524 10524 10524 10524 10524 10524 10523 10522 10522 10521 10520 10519 10518 10517 10517 10516 10515 10514 10513 10512 10511 10510 10510 10509